Deming, NM

3:06 AM MST on February 09, 2016 (GMT -0700)
Deming Municipal

Weather History for KDMN - March, 2012

Change the Weather History Date:

Saturday, March 3, 2012

  Actual Average Record
Temperature  
Mean Temperature 39 °F 49 °F  
Max Temperature 57 °F 65 °F 83 °F (2009)
Min Temperature 21 °F 34 °F 11 °F (1971)
Degree Days  
Heating Degree Days 25    
Moisture  
Dew Point -1 °F    
Average Humidity 23    
Maximum Humidity 38    
Minimum Humidity 8    
Precipitation  
Precipitation 0.00 in 0.02 in 0.32 in (1992)
Month to date precipitation 0.00 0.06  
Year to date precipitation 0.60 1.26  
Sea Level Pressure  
Sea Level Pressure 30.22 in    
Wind  
Wind Speed 3 mph (SSW)    
Max Wind Speed 12 mph    
Max Gust Speed 15 mph    
Visibility 10 miles    
Events      
T = Trace of Precipitation, MM = Missing Value Source: NWS Daily Summary

Daily Weather History Graph

Daily Weather History Graph

Search for Another Location

Airport or City:

Trip Planner

Search our weather history database for the weather conditions in past years. The results will help you decide how hot, cold, wet, or windy it might be!

Date:

Astronomy

Mar. 03, 2012 Rise Set
Actual Time 6:35 AM MST 6:10 PM MST
Civil Twilight 6:10 AM MST 6:35 PM MST
Nautical Twilight 5:42 AM MST 7:03 PM MST
Astronomical Twilight 5:14 AM MST 7:31 PM MST
Moon 1:37 PM MST (3/3) 3:00 AM MST (3/3)
Length of Visible Light 12h 24m
Length of Day
11h 35m
Waxing Gibbous, 76% of the Moon is Illuminated
Mar 3
Waxing Gibbous
Mar 8
Full
Mar 14
Last Quarter
Mar 22
New
Mar 30
First Quarter

Hourly Weather History & Observations

Time (MST) Temp. Windchill Dew Point Humidity Pressure Visibility Wind Dir Wind Speed Gust Speed Precip Events Conditions
12:53 AM 30.0 °F - 1.9 °F 30% 30.14 in 10.0 mi Calm Calm - N/A   Clear
1:53 AM 28.9 °F 23.9 °F 1.9 °F 32% 30.15 in 10.0 mi NE 4.6 mph - N/A   Clear
2:53 AM 27.0 °F 23.0 °F 1.0 °F 33% 30.16 in 10.0 mi ENE 3.5 mph - N/A   Clear
3:53 AM 27.0 °F - 1.0 °F 33% 30.17 in 10.0 mi Calm Calm - N/A   Clear
4:53 AM 24.1 °F 18.2 °F 1.9 °F 38% 30.21 in 10.0 mi South 4.6 mph - N/A   Clear
5:53 AM 23.0 °F 17.0 °F -0.0 °F 37% 30.24 in 10.0 mi SSE 4.6 mph - N/A   Clear
6:53 AM 25.0 °F 20.7 °F -2.0 °F 31% 30.26 in 10.0 mi SE 3.5 mph - N/A   Clear
7:53 AM 32.0 °F - -0.0 °F 26% 30.27 in 10.0 mi Calm Calm - N/A   Clear
8:53 AM 37.0 °F - -2.9 °F 18% 30.30 in 10.0 mi Calm Calm - N/A   Clear
9:53 AM 42.1 °F 39.2 °F -2.9 °F 15% 30.28 in 10.0 mi Variable 4.6 mph - N/A   Clear
10:53 AM 45.0 °F 42.6 °F -6.0 °F 12% 30.27 in 10.0 mi Variable 4.6 mph - N/A   Clear
11:53 AM 48.9 °F - -4.0 °F 11% 30.25 in 10.0 mi Variable 6.9 mph - N/A   Clear
12:53 PM 50.0 °F - -4.0 °F 11% 30.22 in 10.0 mi Calm Calm - N/A   Clear
1:53 PM 54.0 °F - -4.0 °F 9% 30.18 in 10.0 mi Calm Calm - N/A   Clear
2:53 PM 55.0 °F - -5.1 °F 8% 30.17 in 10.0 mi SW 4.6 mph - N/A   Clear
3:53 PM 57.0 °F - -4.0 °F 8% 30.17 in 10.0 mi South 8.1 mph - N/A   Clear
4:53 PM 57.0 °F - -2.9 °F 9% 30.18 in 10.0 mi SSW 5.8 mph - N/A   Clear
5:53 PM 54.0 °F - -2.0 °F 10% 30.19 in 10.0 mi South 3.5 mph - N/A   Clear
6:53 PM 48.9 °F - -2.0 °F 12% 30.22 in 10.0 mi Calm Calm - N/A   Clear
7:53 PM 46.0 °F 44.8 °F 3.0 °F 17% 30.23 in 10.0 mi West 3.5 mph - N/A   Clear
8:53 PM 41.0 °F 38.0 °F 3.9 °F 21% 30.24 in 10.0 mi NW 4.6 mph - N/A   Clear
9:53 PM 44.1 °F 42.5 °F 3.9 °F 19% 30.24 in 10.0 mi West 3.5 mph - N/A   Clear
10:53 PM 41.0 °F - 3.9 °F 21% 30.24 in 10.0 mi Calm Calm - N/A   Clear
11:53 PM 36.0 °F 29.0 °F 5.0 °F 27% 30.23 in 10.0 mi WSW 9.2 mph - N/A   Clear